Total_Precipitation_Accumulation
0.73 0.56 0.46 0.47 0.48 0.44 0.49 0.67 1.15 1.66 2.08 2.34 2.49 2.50 2.45 2.26 2.02 1.98 2.08 2.07 2.00 1.90 1.78 1.60 1.47 1.43 1.35 1.31 1.24 1.23 1.29 1.41 1.50 1.45 1.41 1.45 1.51 1.40 1.24 1.17 1.08 1.06 1.00 0.95
0.63 0.51 0.49 0.60 0.60 0.62 0.67 0.80 1.07 1.54 2.15 2.19 2.12 1.93 1.96 1.95 1.86 1.97 2.12 2.15 2.09 1.98 1.83 1.60 1.47 1.41 1.33 1.23 1.12 1.13 1.18 1.33 1.41 1.38 1.33 1.32 1.36 1.33 1.26 1.18 1.13 1.10 1.05 0.99
0.84 0.65 0.81 1.23 0.99 0.95 1.04 1.07 1.20 1.61 1.82 1.60 1.63 1.67 1.76 1.80 1.83 2.00 2.12 2.14 2.09 2.02 1.85 1.62 1.52 1.47 1.52 1.36 1.18 1.21 1.23 1.25 1.29 1.33 1.36 1.35 1.32 1.31 1.31 1.32 1.30 1.20 1.09 1.03
0.88 1.06 1.69 1.57 0.99 0.94 1.05 1.12 1.02 1.10 1.12 1.20 1.32 1.47 1.65 1.73 1.85 2.05 2.17 2.26 2.22 2.05 1.85 1.62 1.45 1.39 1.40 1.37 1.27 1.30 1.25 1.17 1.17 1.18 1.20 1.20 1.25 1.29 1.29 1.30 1.27 1.19 1.09 1.04
1.14 1.52 1.76 1.50 0.97 0.92 1.12 1.34 1.01 0.97 0.91 0.99 1.09 1.30 1.75 1.83 1.87 2.02 2.17 2.14 2.08 1.91 1.77 1.68 1.52 1.44 1.37 1.34 1.34 1.26 1.16 1.09 1.02 0.97 1.01 1.03 1.09 1.21 1.31 1.31 1.20 1.09 1.00 0.98
1.31 1.81 2.25 1.89 0.93 0.63 0.97 1.76 1.20 0.92 0.83 0.96 1.14 1.55 1.77 1.65 1.63 1.65 1.68 1.65 1.61 1.54 1.49 1.47 1.38 1.36 1.37 1.36 1.32 1.22 1.11 1.00 0.91 0.92 1.00 1.01 1.05 1.16 1.25 1.29 1.15 0.96 0.89 0.90
1.36 1.80 2.01 1.16 0.68 0.73 1.61 2.01 1.41 1.15 1.00 1.02 1.22 1.38 1.32 1.27 1.34 1.40 1.42 1.41 1.32 1.28 1.32 1.32 1.23 1.27 1.31 1.26 1.18 1.04 0.96 0.93 0.92 0.96 1.05 1.05 1.15 1.24 1.19 1.09 1.06 0.97 0.91 0.90
1.55 2.00 2.09 0.91 0.72 1.23 1.54 1.21 1.18 1.18 1.10 1.07 1.04 0.99 1.00 1.12 1.34 1.43 1.57 1.48 1.35 1.30 1.26 1.22 1.21 1.29 1.29 1.20 1.01 0.90 0.87 0.90 0.96 0.97 0.93 0.93 1.11 1.20 1.13 1.08 1.04 1.00 0.96 0.90
1.64 1.84 1.39 0.82 0.84 0.90 0.96 0.97 0.95 0.97 0.91 0.90 0.99 1.02 0.95 1.08 1.29 1.43 1.54 1.47 1.39 1.31 1.23 1.17 1.15 1.21 1.20 1.03 0.82 0.78 0.85 0.98 1.03 0.97 1.03 1.03 1.03 1.09 1.13 1.14 1.02 0.93 0.91 0.84
1.42 1.37 1.03 0.79 0.69 0.66 0.72 0.77 0.77 0.83 0.84 0.86 1.05 1.10 1.02 1.07 1.22 1.39 1.42 1.30 1.20 1.13 1.08 1.01 0.95 0.92 0.92 0.80 0.72 0.79 0.91 0.99 1.01 1.02 1.11 1.11 1.03 0.91 0.89 0.90 0.86 0.81 0.79 0.73
1.68 1.53 1.19 0.88 0.71 0.70 0.67 0.68 0.73 0.82 0.84 0.89 0.96 1.02 1.04 1.06 1.12 1.16 1.19 1.17 1.09 1.02 0.92 0.81 0.75 0.70 0.68 0.66 0.67 0.77 0.85 0.90 0.93 0.96 1.02 1.08 0.99 0.85 0.79 0.72 0.64 0.61 0.59 0.55
2.00 1.65 1.51 1.14 0.85 0.81 0.80 0.79 0.79 0.77 0.72 0.74 0.76 0.81 0.86 0.88 0.92 0.94 1.00 1.02 1.02 0.93 0.83 0.75 0.70 0.66 0.62 0.59 0.61 0.73 0.77 0.75 0.72 0.77 0.81 0.84 0.84 0.79 0.61 0.46 0.38 0.34 0.34 0.37
1.56 1.26 1.15 1.06 0.92 0.86 0.79 0.65 0.60 0.60 0.55 0.58 0.64 0.68 0.68 0.67 0.69 0.74 0.81 0.80 0.81 0.78 0.70 0.71 0.68 0.61 0.59 0.57 0.56 0.63 0.71 0.68 0.60 0.58 0.64 0.68 0.68 0.77 0.71 0.49 0.29 0.22 0.22 0.27
1.10 1.03 0.95 0.77 0.62 0.53 0.45 0.42 0.42 0.47 0.44 0.41 0.45 0.52 0.54 0.53 0.56 0.60 0.67 0.66 0.62 0.59 0.58 0.61 0.64 0.57 0.52 0.53 0.56 0.56 0.55 0.51 0.53 0.59 0.59 0.56 0.54 0.56 0.60 0.66 0.59 0.44 0.31 0.28
0.79 0.76 0.67 0.48 0.38 0.37 0.37 0.37 0.41 0.43 0.42 0.42 0.40 0.50 0.51 0.48 0.49 0.51 0.57 0.56 0.54 0.52 0.53 0.54 0.57 0.57 0.49 0.46 0.50 0.53 0.51 0.49 0.51 0.51 0.49 0.46 0.44 0.44 0.45 0.52 0.58 0.59 0.53 0.42
0.56 0.53 0.50 0.43 0.41 0.40 0.42 0.43 0.46 0.44 0.41 0.41 0.43 0.48 0.49 0.44 0.41 0.46 0.53 0.53 0.54 0.58 0.57 0.53 0.50 0.46 0.44 0.42 0.42 0.46 0.44 0.40 0.40 0.43 0.39 0.38 0.40 0.43 0.43 0.48 0.53 0.55 0.58 0.56
0.56 0.52 0.49 0.50 0.48 0.46 0.45 0.45 0.45 0.43 0.42 0.40 0.38 0.37 0.37 0.39 0.43 0.49 0.52 0.50 0.52 0.58 0.58 0.56 0.47 0.39 0.38 0.37 0.39 0.40 0.40 0.39 0.39 0.37 0.33 0.33 0.38 0.40 0.39 0.43 0.47 0.50 0.46 0.49
0.57 0.52 0.47 0.52 0.52 0.48 0.44 0.42 0.42 0.43 0.43 0.39 0.32 0.32 0.36 0.41 0.47 0.50 0.50 0.50 0.52 0.56 0.55 0.51 0.45 0.38 0.35 0.36 0.39 0.37 0.37 0.39 0.38 0.35 0.33 0.31 0.32 0.34 0.35 0.39 0.44 0.50 0.49 0.50
0.53 0.49 0.42 0.43 0.45 0.44 0.42 0.42 0.41 0.39 0.37 0.36 0.35 0.36 0.39 0.43 0.43 0.46 0.50 0.54 0.59 0.62 0.54 0.45 0.42 0.40 0.38 0.37 0.38 0.36 0.37 0.39 0.39 0.38 0.36 0.35 0.34 0.34 0.34 0.38 0.42 0.47 0.52 0.55
0.44 0.44 0.41 0.39 0.40 0.44 0.48 0.45 0.38 0.35 0.37 0.40 0.41 0.42 0.45 0.45 0.41 0.43 0.48 0.55 0.56 0.48 0.42 0.42 0.40 0.37 0.36 0.40 0.42 0.38 0.36 0.36 0.36 0.39 0.43 0.46 0.46 0.42 0.37 0.33 0.35 0.40 0.46 0.48
0.41 0.41 0.39 0.38 0.41 0.41 0.42 0.43 0.43 0.42 0.43 0.45 0.49 0.56 0.58 0.52 0.45 0.45 0.45 0.47 0.44 0.39 0.36 0.37 0.36 0.38 0.37 0.38 0.39 0.37 0.35 0.36 0.37 0.36 0.36 0.39 0.45 0.45 0.42 0.41 0.39 0.37 0.38 0.42
0.44 0.44 0.37 0.34 0.37 0.40 0.41 0.45 0.46 0.43 0.43 0.47 0.52 0.57 0.60 0.55 0.47 0.46 0.43 0.42 0.40 0.37 0.38 0.34 0.32 0.36 0.38 0.36 0.32 0.32 0.32 0.33 0.36 0.35 0.32 0.32 0.33 0.34 0.35 0.39 0.44 0.44 0.41 0.42
0.49 0.45 0.36 0.33 0.34 0.38 0.37 0.36 0.41 0.44 0.45 0.47 0.49 0.50 0.51 0.47 0.45 0.46 0.46 0.43 0.41 0.39 0.37 0.35 0.37 0.34 0.29 0.27 0.29 0.32 0.31 0.30 0.31 0.32 0.30 0.28 0.28 0.30 0.31 0.32 0.35 0.36 0.37 0.40
0.52 0.46 0.40 0.33 0.32 0.36 0.41 0.43 0.41 0.43 0.46 0.48 0.48 0.47 0.47 0.46 0.45 0.41 0.39 0.42 0.41 0.36 0.33 0.32 0.31 0.27 0.23 0.21 0.24 0.28 0.30 0.30 0.28 0.27 0.28 0.29 0.30 0.32 0.31 0.29 0.30 0.29 0.29 0.31
0.59 0.52 0.43 0.41 0.42 0.43 0.46 0.48 0.48 0.47 0.52 0.53 0.49 0.47 0.46 0.47 0.47 0.41 0.39 0.41 0.44 0.39 0.33 0.29 0.27 0.26 0.23 0.20 0.22 0.23 0.24 0.25 0.25 0.24 0.25 0.27 0.29 0.29 0.27 0.26 0.28 0.30 0.32 0.33
0.71 0.65 0.57 0.52 0.48 0.44 0.44 0.49 0.52 0.51 0.54 0.59 0.56 0.50 0.49 0.46 0.40 0.37 0.39 0.41 0.43 0.43 0.35 0.31 0.31 0.30 0.25 0.23 0.25 0.25 0.24 0.24 0.22 0.22 0.23 0.24 0.23 0.23 0.23 0.24 0.27 0.27 0.28 0.30
0.82 0.77 0.71 0.59 0.48 0.45 0.49 0.55 0.55 0.52 0.48 0.50 0.51 0.48 0.45 0.43 0.39 0.37 0.39 0.41 0.41 0.39 0.34 0.32 0.34 0.34 0.32 0.29 0.30 0.31 0.31 0.31 0.29 0.28 0.26 0.25 0.24 0.25 0.24 0.23 0.25 0.27 0.27 0.28